Regional Weather Roundup
Issued by NWS

Home | Current Version | Previous Version | Text Only | Print | Product List | Glossary Off
Versions: 1 2 3 4 5 6 7 8 9 10 11 12 13 14 15 16 17 18 19 20 21 22 23 24 25 26 27 28 29 30 31 32 33 34 35 36 37 38 39 40 41 42 43 44 45 46 47 48 49 50

000
ASUS43 KIND 162009
RWRIN

WEATHER ROUNDUP FOR INDIANA
NATIONAL WEATHER SERVICE INDIANAPOLIS IN
400 PM EDT TUE SEP 16 2014

NOTE: "FAIR" INDICATES FEW OR NO CLOUDS BELOW 12,000 FEET WITH NO
SIGNIFICANT WEATHER AND/OR OBSTRUCTIONS TO VISIBILITY.

* - STATION DOES NOT REPORT WEATHER SUCH AS PRECIPITATION OR FOG.

+ - STATION NOT QUALITY CONTROLLED BY THE NATIONAL WEATHER SERVICE.
    USE DATA WITH CAUTION...ESPECIALLY DEWPOINT AND RELATIVE
    HUMIDITY OBSERVATIONS.

INZ001>003-010>013-019-020-162100-
NORTHWEST INDIANA

CITY           SKY/WX    TMP DP  RH WIND       PRES   REMARKS
GARY /AIRPORT/ MOSUNNY   66  46  48 N9        30.14F
KNOX *+        CLOUDY    64  46  52 CALM      30.13F
LA PORTE +     MOSUNNY   63  48  59 N9        30.14F
MICHIGAN CITY+ SUNNY     63  46  55 NW3       30.14F
MONTICELLO +   SUNNY     65  47  51 N3        30.13F
RENSSELAER +   CLOUDY    63  45  51 CALM      30.14F
VALPARAISO     PTSUNNY   62  48  60 N3        30.14F

$$

LMZ046-743>745-162100-
SOUTHERN LAKE MICHIGAN

STATION/POSITION TIME  TEMP WIND        PRES
                       AIR  DIR/SP/G
                 (UTC) (F)  (DEG/KT/KT) (MB)
MICHIGAN CITY    2000   62  310/  7/  9   N/A

$$

INZ004-005-014>016-021>024-162100-
NORTH CENTRAL INDIANA

CITY           SKY/WX    TMP DP  RH WIND       PRES   REMARKS
ELKHART        MOSUNNY   64  45  48 W5        30.14F
GOSHEN         MOSUNNY   64  46  52 W9        30.13F
LOGANSPORT +   SUNNY     64  43  45 CALM      30.14F
PERU/GRISSOM   SUNNY     65  49  55 NE7       30.13F
ROCHESTER +    MOSUNNY   66  46  48 W5        30.14F
SOUTH BEND     MOSUNNY   65  47  52 W9        30.13
WARSAW +       MOSUNNY   64  45  48 NW5       30.13F

$$

INZ006>009-017-018-025>027-162100-
NORTHEAST INDIANA

CITY           SKY/WX    TMP DP  RH WIND       PRES   REMARKS
ANGOLA *+      SUNNY     66  45  45 W7        30.12F
AUBURN +       PTSUNNY   66  41  39 W7        30.12F
FORT WAYNE     MOSUNNY   64  45  49 CALM      30.13F
HUNTINGTON +   MOSUNNY   63  47  56 CALM      30.13F

$$

INZ028-029-035-036-043>045-051>053-162100-
WEST CENTRAL INDIANA

CITY           SKY/WX    TMP DP  RH WIND       PRES   REMARKS
GREENCASTLE +  PTSUNNY   63  46  55 CALM      30.14F
LAFAYETTE      PTSUNNY   65  47  52 MISG      30.13F
TERRE HAUTE    PTSUNNY   64  50  60 VRB6      30.14F

$$

INZ030>032-037>040-046>048-054>057-064-065-162100-
CENTRAL INDIANA

CITY           SKY/WX    TMP DP  RH WIND       PRES   REMARKS
ANDERSON       CLOUDY    61  48  63 W6        30.15F
CP ATTERBURY + CLOUDY    59  50  72 CALM      30.16F
COLUMBUS       CLOUDY    59  52  77 CALM      30.16F
FRANKFORT +    MOSUNNY   67  49  52 NE6       30.15F
INDIANAPOLIS   PTSUNNY   63  47  55 CALM      30.13F
-EAGLE CREEK   PTSUNNY   63  46  54 NW5       30.13F
KOKOMO *+      SUNNY     66  46  48 NW9       30.13F
MARION +       CLOUDY    63  47  57 E6        30.14F
MT COMFORT *+  CLOUDY    61  45  55 CALM      30.14F
SHELBYVILLE    CLOUDY    62  50  64 CALM      30.14F
ZIONSVILLE +   PTSUNNY   64  47  54 W3        30.14F

$$

INZ033-034-041-042-049-050-058-059-162100-
EAST CENTRAL INDIANA

CITY           SKY/WX    TMP DP  RH WIND       PRES   REMARKS
MUNCIE         CLOUDY    61  48  62 NW5       30.14F

$$

INZ060-061-067>069-081>083-085>088-162100-
SOUTHWEST INDIANA

CITY           SKY/WX    TMP DP  RH WIND       PRES   REMARKS
EVANSVILLE     CLOUDY    65  51  60 N8        30.14F
WASHINGTON +   CLOUDY    62  52  70 N6        30.15F

$$

INZ062-063-066-070>080-084-089>092-162100-
SOUTH CENTRAL AND SOUTHEAST INDIANA

CITY           SKY/WX    TMP DP  RH WIND       PRES   REMARKS
BEDFORD +      CLOUDY    61  50  67 N5        30.15F
BLOOMINGTON    PTSUNNY   61  49  64 CALM      30.15F
NORTH VERNON + CLOUDY    59  54  82 N5        30.16
SEYMOUR +      CLOUDY    61  52  72 N7        30.15F

$$



USA.gov is the U.S. government's official web portal to all federal, state and local government web resources and services.